Other Public Products
Issued by NWS Grand Forks, ND

Home | Current Version | Previous Version | Graphics & Text | Print | Product List | Glossary On
Versions: 1 2 3 4 5 6 7 8 9 10 11 12 13 14 15 16 17 18 19 20 21 22 23 24 25 26 27 28 29 30 31 32 33 34 35 36 37 38 39 40 41 42 43 44 45 46 47 48 49 50
000
FPUS83 KFGF 070710
OPUFGF
PRAIRIE TO PINES WEATHER ROUNDUP
NATIONAL WEATHER SERVICE EASTERN NORTH DAKOTA/GRAND FORKS ND
200 AM CDT THU MAY 07 2015

 **SATELLITE DATA USED TO AUGMENT SKY COVER AT AUTOMATED STATIONS**
 *****  WEATHER ACROSS EASTERN NORTH DAKOTA  *****

CITY           SKY/WX    TMP DP  RH WIND       PRES   REMARKS
GRAND FORKS    MOCLDY    63  60  90 S16       29.63F
GRAND FORKS AF PTCLDY    62  60  92 S15       29.62F
GRAND CITY NWS   N/A     61 N/A N/A S16         N/A
BUXTON         NOT AVBL
DEVILS LAKE    CLOUDY    61  57  88 S13       29.58S
FARGO          CLOUDY    65  60  84 SE17G24   29.65F
WAHPETON ARPT  CLOUDY    61  55  82 S18G24    29.68F
$$

 *****  WEATHER ACROSS CENTRAL AND WESTERN NORTH DAKOTA  *****

CITY           SKY/WX    TMP DP  RH WIND       PRES   REMARKS
JAMESTOWN      MOCLDY    57  55  93 S10       29.60F
BISMARCK       RAIN      57  56  96 W12       29.63S FOG
MINOT          CLOUDY    54  52  93 NW18G29   29.64S
MINOT AFB      DRIZZLE   55  55 100 NW22      29.63F FOG
GARRISON         N/A     54  52  93 N22       29.65R
WILLISTON      CLOUDY    50  44  80 N16       29.80R
DICKINSON      LGT RAIN  49  47  93 NW17      29.72R
HETTINGER      LGT RAIN  48  46  93 NW24G31   29.72S
$$

 *****  OTHER OBSERVATIONS NORTHEAST NORTH DAKOTA  *****

CITY           SKY/WX    TMP DP  RH WIND       PRES   REMARKS
WALHALLA       CLOUDY    57  57 100 SE6       29.61F FOG
LANGDON        CLOUDY    59  59 100 SE13      29.62S FOG
CAVALIER       CLOUDY    59  59 100 SE8       29.62F
GRAFTON        FAIR      61  61 100 S12       29.63F
CANDO          FOG       57  57 100 E6        29.59F VSB 1
FORT TOTTEN      N/A     61  61 100 S8        29.95S
ROLLA          NOT AVBL
RUGBY          NOT AVBL
 ***** THE ABOVE OBSERVATIONS ARE NON NWS ARE NOT QUALITY
        CONTROLLED AND MAY MIS-REPORT RAIN FOR SNOW...
$$

 *****  OTHER OBSERVATIONS SOUTHEAST NORTH DAKOTA *****

CITY           SKY/WX    TMP DP  RH WIND       PRES   REMARKS
COOPERSTOWN    NOT AVBL
VALLEY CITY    FAIR      59  59 100 S9        29.63S
OAKES          LGT RAIN  59  59 100 SE6       29.63S
GWINNER          N/A     63  63 100 S8        29.65F
SHEYENNE NWR     N/A     62  60  92 S10       29.95S
BUFFALO        NOT AVBL
WYNDMERE       NOT AVBL
 ***** THE ABOVE OBSERVATIONS ARE NON NWS ARE NOT QUALITY
       CONTROLLED AND MAY MIS-REPORT RAIN FOR SNOW...
$$

  *****  WEATHER ACROSS NORTHERN MINNESOTA  *****

CITY           SKY/WX    TMP DP  RH WIND       PRES   REMARKS
FLAG ISLAND    CLOUDY    57  54  88 S20       29.72F
WARROAD        CLOUDY    61  55  82 S12G21    29.72F
ROSEAU         CLOUDY    63  57  82 S16       29.70F
HALLOCK        CLOUDY    63  61  94 SE15      29.63F
THF RVR FALLS  MOCLDY    63  59  88 SE13      29.69F
HALSTAD        NOT AVBL
FOSSTON        MOCLDY    63  57  82 SE12G17   29.72F
BAUDETTE       CLOUDY    58  55  90 SE10      29.75F
WASKISH        CLOUDY    59  55  88 SE7       29.76F
CROOKSTON      MOCLDY    63  61  94 S14       29.67F
$$
  *****  WEATHER ACROSS CENTRAL AND WEST MINNESOTA  *****

CITY           SKY/WX    TMP DP  RH WIND       PRES   REMARKS
BEMIDJI        PTCLDY    58  57  97 SE9       29.76F
PARK RAPIDS    MOCLDY    63  60  90 SE12      29.75F
WADENA         PTCLDY    61  59  94 SE9       29.74F
DETROIT LAKES  MOCLDY    63  61  94 SE12      29.73F
MOORHEAD       MOCLDY    64  59  82 SE14G21   29.67F
FERGUS FALLS   CLOUDY    64  59  82 SE16      29.70F
ELBOW LAKE     CLOUDY    64  58  83 SE17G23   29.70F
MORRIS MN      LGT RAIN  63  61  94 SE17      29.69F
STAPLES        MOCLDY    61  59  94 SE6       29.77F
WHEATON        CLOUDY    59  57  94 SE12      29.69F
$$
  *****  WEATHER ELSEWHERE ACROSS MINNESOTA  *****

CITY           SKY/WX    TMP DP  RH WIND       PRES   REMARKS
DULUTH         MOCLDY    52  48  86 SE10      29.89F
INTRNTL FALLS  CLOUDY    58  54  86 SE8       29.80F
ELY            MOCLDY    59  54  82 SE10      29.88F
CLOQUET        MOCLDY    46  39  76 E3        29.88S
BRAINERD       CLEAR     63  58  83 SE14G21   29.80F
HIBBING        MOCLDY    57  51  80 SE6       29.85F
ALEXANDRIA     TSTM      62  59  90 SE14G24   29.75F FOG
SAINT CLOUD    CLOUDY    64  58  80 SE9       29.80S
MINNEAPOLIS    MOCLDY    65  58  78 SE8       29.84F
$$

  *****  WEATHER ACROSS SOUTH DAKOTA  *****

CITY           SKY/WX    TMP DP  RH WIND       PRES   REMARKS
SIOUX FALLS    LGT RAIN  62  59  90 S14G23    29.65F
BROOKINGS      CLOUDY    63  57  82 S17       29.67S
WATERTOWN      LGT RAIN  61  59  93 SE17G24   29.64F
HURON          LGT RAIN  62  61  96 S8        29.60S
SISSETON         N/A     62  61  96 SE16      29.64F
ABERDEEN       CLOUDY    59  58  96 E8        29.61F
MITCHELL       CLOUDY    62  60  93 S10       29.62S
PIERRE         MOCLDY    52  51  97 NW6       29.60S
MOBRIDGE       MOCLDY    56  55  97 N3        29.58F
RAPID CITY     CLOUDY    49  45  86 NW25G39   29.74R
$$

  *****  SOME WEATHER IN NEARBY STATES *****

CITY           SKY/WX    TMP DP  RH WIND       PRES   REMARKS
GLASGOW MT     CLEAR     41  31  67 NW13      29.95R
GREAT FALLS MT PTCLDY    38  26  62 NE16G25   30.05R
CHEYENNE WY    LGT RAIN  41  38  89 N10G18    29.87S
SCOTTSBLUFF NE LGT RAIN  48  46  93 NW17      29.81R
OMAHA NE       HVY RAIN  61  59  93 SE17      29.76R FOG
DES MOINES IA  CLOUDY    70  56  61 S20G26    29.83F
DAVENPORT IA   PTCLDY    66  54  65 S10       29.98F
CHICAGO IL     PTCLDY    55  50  83 E3        30.06F
EAU CLAIRE WI  CLOUDY    62  58  86 SE6       29.92F
LA CROSSE WI   MOCLDY    66  58  75 E6        29.92F
$$

  *****  SOME NATIONAL WEATHER *****

CITY           SKY/WX    TMP DP  RH WIND       PRES   REMARKS
LA GUARDIA NY  CLEAR     56  47  71 CALM      30.21F
RALEIGH NC     CLOUDY    61  54  77 CALM      30.14F
ATLANTA GA     CLEAR     64  53  67 CALM      30.11F
NEW ORLEANS LA CLEAR     71  67  87 SE5       30.01F
OKLAHOMA CITY  CLOUDY    67  63  87 SE14      29.87R
ALBUQUERQUE NM MOCLDY    59  42  53 NE3       29.91S
SALT LAKE CITY LGT RAIN  49  46  90 E3        29.81R
LOS ANGELES CA MOCLDY    57  51  80 W13       29.88F
BOISE ID       PTCLDY    47  31  53 W14       29.83R
SEATTLE WA     PTCLDY    52  40  63 E7        30.14F
$$

*** WEATHER ACROSS MANITOBA...SASKATCHEWAN AND ONTARIO ***
                ***ONTARIO***

CITY           SKY/WX    TMP DP  RH WIND       PRES   REMARKS
GERALDTON      MOCLDY    50  32  50 SE3       30.01F
THUNDER BAY    PTCLDY    45  36  70 NE3       29.98F
SIOUX LOOKOUT  LGT RAIN  59  52  77 S8        29.86F
TORONTO        CLEAR     55  36  47 NW6       30.19F
BIG TROUT LK   CLOUDY    37  23  56 E12G18    29.91F
PICKLE LAKE    NOT AVBL
DRYDEN         CLOUDY    57  55  94 SE14      29.82F
KENORA         LGT RAIN  57  55  94 S15       29.76F
$$
                *** MANITOBA***

CITY           SKY/WX    TMP DP  RH WIND       PRES   REMARKS
BRANDON        LGT RAIN  57  57 100 E5        29.64F
DAUPHIN        LGT RAIN  57  55  94 VRB2      29.66F VSB 3/8
ISLAND LAKE    LGT RAIN  43  41  93 E7        29.74F
PILOT MOUND      N/A     57  55  94 E5          N/A
THE PAS        FRZ DRZL  30  28  93 N13       29.85S WCI  20
THOMPSON       LGTSLEET  25  23  93 NE17G29   29.93F WCI  11
WINNIPEG       LGT RAIN  59  57  94 E10       29.65F
LYNN LAKE      CLOUDY    23  19  86 NE14G22   30.05S WCI  11
CHURCHILL      MOCLDY    21 N/A N/A NE12        N/A  WCI   9
GILLAM         FRZ DRZL  23  19  86 NE14G25   30.05F VSB 1   WCI  11
$$
                ***SASKATCHEWAN***

CITY           SKY/WX    TMP DP  RH WIND       PRES   REMARKS
ESTEVAN        LGT RAIN  48  45  87 NW23      29.78R
KINDERSLEY     PTCLDY    34  28  80 NW12G20   30.03F
LLOYDMINSTER   CLOUDY    32  30  93 NW13      30.02S WCI  22
PRINCE ALBERT  CLOUDY    37  36  93 N7        29.93R
REGINA         CLOUDY    45  37  76 NW23G30   29.89R



USA.gov is the U.S. government's official web portal to all federal, state and local government web resources and services.